South Paris, Maine, United States (04281)
Lat: 44.22N, Lon: 70.51W
Wx Zone: MEZ012
Local Info
Past Weather Observations for Thursday, July 30, 2015

NOTE: This archive is for the closest National Weather Service station to South Paris. Information may differ from the station used for current weather conditions.

Click here for Long-term Archive

Time Weather Temperature Dewpoint Humidity Pressure Winds Precip Visibility
23:55
Partly Cloudy
66°F / 19°C 64°F / 18°C 94% 29.74 in
(1007 mb)
Calm - 1 1/2SM
23:35
Mostly Cloudy
66°F / 19°C 64°F / 18°C 94% 29.74 in
(1007 mb)
Calm - 1/2SM
23:15
Mostly Cloudy
66°F / 19°C 64°F / 18°C 94% 29.74 in
(1007 mb)
Calm - 3/4SM
22:55
Clear
68°F / 20°C 64°F / 18°C 88% 29.74 in
(1007 mb)
SW 4.6 mph
(SW 7 kph)
- 1SM
22:35
Clear
70°F / 21°C 66°F / 19°C 88% 29.74 in
(1007 mb)
Calm - 10SM
22:15
Clear
70°F / 21°C 66°F / 19°C 88% 29.74 in
(1007 mb)
ENE 4.6 mph
(ENE 7 kph)
- 10SM
21:55
Clear
70°F / 21°C 66°F / 19°C 88% 29.74 in
(1007 mb)
Calm - 10SM
21:35
Clear
72°F / 22°C 68°F / 20°C 88% 29.74 in
(1007 mb)
SSW 4.6 mph
(SSW 7 kph)
- 10SM
21:15
Clear
72°F / 22°C 68°F / 20°C 88% 29.74 in
(1007 mb)
SSW 3.5 mph
(SSW 6 kph)
- 10SM
20:55
Clear
72°F / 22°C 68°F / 20°C 88% 29.74 in
(1007 mb)
WNW 3.5 mph
(WNW 6 kph)
- 10SM
20:35
Clear
72°F / 22°C 68°F / 20°C 88% 29.74 in
(1007 mb)
SSW 5.8 mph
(SSW 9 kph)
- 10SM
20:15
Partly Cloudy
73°F / 23°C 68°F / 20°C 83% 29.74 in
(1007 mb)
SW 11.5 mph
(SW 19 kph)
- 10SM
19:55
Mostly Cloudy
73°F / 23°C 68°F / 20°C 83% 29.71 in
(1006 mb)
SW 9.2 mph
(SW 15 kph)
0.03 in
(0.76 mm)
10SM
19:35
Overcast
Thunder Storms
75°F / 24°C 70°F / 21°C 83% 29.71 in
(1006 mb)
S 11.5 mph
(S 19 kph)
0.02 in
(0.51 mm)
10SM
19:15
Mostly Cloudy
Thunder Storms
75°F / 24°C 72°F / 22°C 89% 29.71 in
(1006 mb)
SW 13.8 mph
(SW 22 kph)
0.02 in
(0.51 mm)
5SM
18:55
Partly Cloudy
75°F / 24°C 72°F / 22°C 89% 29.71 in
(1006 mb)
Calm - 8SM
18:35
Partly Cloudy
75°F / 24°C 72°F / 22°C 89% 29.71 in
(1006 mb)
SSE 3.5 mph
(SSE 6 kph)
- 10SM
18:15
Mostly Cloudy
75°F / 24°C 72°F / 22°C 89% 29.71 in
(1006 mb)
S 3.5 mph
(S 6 kph)
- 10SM
17:55
Mostly Cloudy
75°F / 24°C 72°F / 22°C 89% 29.74 in
(1007 mb)
SSW 5.8 mph
(SSW 9 kph)
- 7SM
17:35
Partly Cloudy
79°F / 26°C 70°F / 21°C 74% 29.71 in
(1006 mb)
S 9.2 mph
(S 15 kph)
- 10SM
17:15
Clear
79°F / 26°C 72°F / 22°C 79% 29.71 in
(1006 mb)
SSE 6.9 mph
(SSE 11 kph)
- 10SM
16:55
Clear
79°F / 26°C 72°F / 22°C 79% 29.71 in
(1006 mb)
S 5.8 mph
(S 9 kph)
- 10SM
16:35
Clear
79°F / 26°C 70°F / 21°C 74% 29.71 in
(1006 mb)
S 8.1 mph
(S 13 kph)
- 10SM
16:15
Partly Cloudy
79°F / 26°C 70°F / 21°C 74% 29.71 in
(1006 mb)
SSE 6.9 mph
(SSE 11 kph)
- 10SM
15:55
Clear
79°F / 26°C 72°F / 22°C 79% 29.74 in
(1007 mb)
S 6.9 mph
(S 11 kph)
- 10SM
15:35
Clear
81°F / 27°C 70°F / 21°C 70% 29.74 in
(1007 mb)
S 6.9 mph
(S 11 kph)
- 10SM
15:15
Clear
81°F / 27°C 72°F / 22°C 74% 29.74 in
(1007 mb)
SSE 5.8 mph
(SSE 9 kph)
- 10SM
14:55
Clear
82°F / 28°C 72°F / 22°C 70% 29.74 in
(1007 mb)
SSE 9.2 mph
(SSE 15 kph)
- 9SM
14:35
Clear
81°F / 27°C 70°F / 21°C 70% 29.77 in
(1008 mb)
SSE 8.1 mph
(SSE 13 kph)
- 10SM
14:15
Clear
82°F / 28°C 72°F / 22°C 70% 29.77 in
(1008 mb)
SSE 9.2 mph
(SSE 15 kph)
- 10SM
13:55
Clear
82°F / 28°C 72°F / 22°C 70% 29.77 in
(1008 mb)
S 10.4 mph
(S 17 kph)
- 10SM
13:35
Clear
84°F / 29°C 70°F / 21°C 62% 29.77 in
(1008 mb)
S 10.4 mph
(S 17 kph)
- 10SM
13:15
Clear
84°F / 29°C 70°F / 21°C 62% 29.77 in
(1008 mb)
SSE 6.9 mph
(SSE 11 kph)
- 10SM
12:55
Clear
84°F / 29°C 70°F / 21°C 62% 29.77 in
(1008 mb)
SSE 10.4 mph
(SSE 17 kph)
- 10SM
12:35
Clear
84°F / 29°C 70°F / 21°C 62% 29.8 in
(1009 mb)
S 10.4 mph
(S 17 kph)
- 10SM
12:15
Clear
84°F / 29°C 70°F / 21°C 62% 29.8 in
(1009 mb)
SSE 10.4 mph
(SSE 17 kph)
- 10SM
11:55
Clear
84°F / 29°C 70°F / 21°C 62% 29.8 in
(1009 mb)
SSE 9.2 mph
(SSE 15 kph)
- 10SM
11:35
Clear
84°F / 29°C 72°F / 22°C 66% 29.8 in
(1009 mb)
S 8.1 mph
(S 13 kph)
- 10SM
11:15
Clear
82°F / 28°C 70°F / 21°C 66% 29.83 in
(1010 mb)
S 5.8 mph
(S 9 kph)
- 10SM
10:55
Clear
82°F / 28°C 70°F / 21°C 66% 29.83 in
(1010 mb)
SSE 5.8 mph
(SSE 9 kph)
- 10SM
10:35
Clear
81°F / 27°C 70°F / 21°C 70% 29.83 in
(1010 mb)
SSE 9.2 mph
(SSE 15 kph)
- 10SM
10:15
Clear
81°F / 27°C 70°F / 21°C 70% 29.83 in
(1010 mb)
S 6.9 mph
(S 11 kph)
- 10SM
09:55
Clear
81°F / 27°C 70°F / 21°C 70% 29.83 in
(1010 mb)
SSE 6.9 mph
(SSE 11 kph)
- 10SM
09:35
Clear
79°F / 26°C 70°F / 21°C 74% 29.83 in
(1010 mb)
SE 6.9 mph
(SE 11 kph)
- 10SM
09:15
Clear
79°F / 26°C 70°F / 21°C 74% 29.83 in
(1010 mb)
S 5.8 mph
(S 9 kph)
- 10SM
08:55
Clear
77°F / 25°C 68°F / 20°C 74% 29.86 in
(1011 mb)
SE 4.6 mph
(SE 7 kph)
- 10SM
08:35
Clear
75°F / 24°C 68°F / 20°C 78% 29.86 in
(1011 mb)
S 5.8 mph
(S 9 kph)
- 10SM
08:15
Clear
75°F / 24°C 66°F / 19°C 74% 29.86 in
(1011 mb)
SSE 5.8 mph
(SSE 9 kph)
- 10SM
07:55
Clear
73°F / 23°C 66°F / 19°C 78% 29.89 in
(1012 mb)
S 5.8 mph
(S 9 kph)
- 10SM
07:35
Clear
73°F / 23°C 66°F / 19°C 78% 29.89 in
(1012 mb)
SSE 4.6 mph
(SSE 7 kph)
- 10SM
07:15
Clear
73°F / 23°C 66°F / 19°C 78% 29.89 in
(1012 mb)
SSE 4.6 mph
(SSE 7 kph)
- 10SM
06:55
Clear
72°F / 22°C 68°F / 20°C 88% 29.89 in
(1012 mb)
Calm - 10SM
06:35
Clear
72°F / 22°C 68°F / 20°C 88% 29.89 in
(1012 mb)
Calm - 10SM
06:15
Partly Cloudy
70°F / 21°C 66°F / 19°C 88% 29.89 in
(1012 mb)
Calm - 6SM
05:55
Overcast
68°F / 20°C 66°F / 19°C 94% 29.89 in
(1012 mb)
N 3.5 mph
(N 6 kph)
- 1 1/4SM
05:35
Overcast
66°F / 19°C 64°F / 18°C 94% 29.89 in
(1012 mb)
Calm - M1/4SM
05:15
Overcast
66°F / 19°C 64°F / 18°C 94% 29.89 in
(1012 mb)
Calm - 2SM
04:55
Overcast
66°F / 19°C 63°F / 17°C 88% 29.89 in
(1012 mb)
Calm - 1/4SM
04:35
Overcast
66°F / 19°C 64°F / 18°C 94% 29.89 in
(1012 mb)
Calm - 1SM
04:15
Overcast
66°F / 19°C 64°F / 18°C 94% 29.89 in
(1012 mb)
SE 3.5 mph
(SE 6 kph)
- 1 1/2SM
03:55
Overcast
66°F / 19°C 64°F / 18°C 94% 29.89 in
(1012 mb)
SSE 3.5 mph
(SSE 6 kph)
- 5SM
03:35
Overcast
66°F / 19°C 64°F / 18°C 94% 29.89 in
(1012 mb)
Calm - 5SM
03:15
Mostly Cloudy
66°F / 19°C 64°F / 18°C 94% 29.86 in
(1011 mb)
Calm - 4SM
02:55
Mostly Cloudy
66°F / 19°C 64°F / 18°C 94% 29.86 in
(1011 mb)
Calm - 1SM
02:35
Partly Cloudy
66°F / 19°C 64°F / 18°C 94% 29.86 in
(1011 mb)
Calm - 4SM
02:15
Mostly Cloudy
66°F / 19°C 64°F / 18°C 94% 29.86 in
(1011 mb)
Calm - 1/2SM
01:55
Clear
66°F / 19°C 64°F / 18°C 94% 29.89 in
(1012 mb)
Calm - 3SM
01:35
Clear
70°F / 21°C 66°F / 19°C 88% 29.89 in
(1012 mb)
NE 4.6 mph
(NE 7 kph)
- 7SM
01:15
Partly Cloudy
68°F / 20°C 66°F / 19°C 94% 29.89 in
(1012 mb)
Calm - 1 1/4SM
00:55
Mostly Cloudy
66°F / 19°C 64°F / 18°C 94% 29.89 in
(1012 mb)
Calm - 1/2SM
00:35
Clear
70°F / 21°C 68°F / 20°C 94% 29.86 in
(1011 mb)
Calm - 3SM
00:15
Clear
68°F / 20°C 66°F / 19°C 94% 29.89 in
(1012 mb)
Calm - 2 1/2SM
Time Weather Temperature Dewpoint Humidity Pressure Winds Precip Visibility


Weather for websites

WeatherForYou.com, LLC is not responsible for any damages or problems caused by this service. Current weather conditions are obtained from the closest station including government and personal stations which may have varying degrees of accuracy. Weather forecasts are derived from the NOAA NDFD. Like all things, this site belongs to Jesus Christ... He just trusts us to maintain it. If you have any questions or comments email webmaster@weatherforyou.com

Copyright © 2015, WeatherForYou.com LLC. All rights reserved.